,,,PA_Meas_PMT16A,,PR_Meas_QMR101_102,,RH_Meas_QMH101,,SR_Meas_QMS101,,TA_Meas_QMH101,,GenWind,,GenWind,
date,time,status,PA,status,PR,status,RH,status,SR,status,TA,status,DirAvg,status,SpdAvg,
2012-10-13, 00:00:05,VALID,1010.19,VALID,0,VALID,104,VALID,0,VALID,23.3451,VALID,38,VALID,0,
2012-10-13, 00:01:05,VALID,1010.15,VALID,0,VALID,104,VALID,0,VALID,23.3451,VALID,39,VALID,0,
2012-10-13, 00:02:05,VALID,1010.13,VALID,0,VALID,104,VALID,0,VALID,23.3238,VALID,39,VALID,0,
2012-10-13, 00:03:05,VALID,1010.08,VALID,0,VALID,104,VALID,0.112112,VALID,23.3433,VALID,39,VALID,0,
2012-10-13, 00:04:05,VALID,1010.1,VALID,0,VALID,104,VALID,0.112112,VALID,23.3026,VALID,39,VALID,0,
2012-10-13, 00:05:05,VALID,1010.07,VALID,0,VALID,104,VALID,0,VALID,23.3433,VALID,38,VALID,0,
2012-10-13, 00:06:05,VALID,1010.08,VALID,0,VALID,104,VALID,0.112112,VALID,23.3026,VALID,39,VALID,0,
2012-10-13, 00:07:05,VALID,1010.08,VALID,0,VALID,104,VALID,0,VALID,23.3043,VALID,39,VALID,0,
2012-10-13, 00:08:05,VALID,1010.11,VALID,0,VALID,104,VALID,0.112112,VALID,23.2831,VALID,39,VALID,0,
2012-10-13, 00:09:05,VALID,1010.1,VALID,0,VALID,104,VALID,0,VALID,23.2636,VALID,40,VALID,0,
2012-10-13, 00:10:05,VALID,1010.11,VALID,0,VALID,104,VALID,0,VALID,23.2636,VALID,40,VALID,0,
2012-10-13, 00:11:05,VALID,1010.13,VALID,0,VALID,104,VALID,0.112112,VALID,23.2636,VALID,39,VALID,0,
2012-10-13, 00:12:05,VALID,1010.08,VALID,0,VALID,104,VALID,0,VALID,23.2636,VALID,39,VALID,0,
2012-10-13, 00:13:05,VALID,1010.07,VALID,0,VALID,104,VALID,0,VALID,23.2848,VALID,39,VALID,0,
2012-10-13, 00:14:05,VALID,1010.03,VALID,0,VALID,104,VALID,0.112112,VALID,23.2831,VALID,39,VALID,0,
2012-10-13, 00:15:05,VALID,1010.01,VALID,0,VALID,104,VALID,0,VALID,23.2848,VALID,38,VALID,0,
2012-10-13, 00:16:05,VALID,1009.98,VALID,0,VALID,104,VALID,0.112112,VALID,23.2831,VALID,39,VALID,0,
2012-10-13, 00:17:05,VALID,1009.96,VALID,0,VALID,104,VALID,0.112112,VALID,23.2831,VALID,40,VALID,0,
2012-10-13, 00:18:05,VALID,1009.9,VALID,0,VALID,104,VALID,0,VALID,23.3043,VALID,39,VALID,0,
2012-10-13, 00:19:05,VALID,1009.89,VALID,0,VALID,104,VALID,0,VALID,23.3043,VALID,37,VALID,0,
2012-10-13, 00:20:05,VALID,1009.85,VALID,0,VALID,104,VALID,0,VALID,23.3043,VALID,40,VALID,0,
2012-10-13, 00:21:05,VALID,1009.81,VALID,0,VALID,104,VALID,0,VALID,23.2848,VALID,39,VALID,0,
2012-10-13, 00:22:05,VALID,1009.81,VALID,0,VALID,104,VALID,0,VALID,23.2848,VALID,38,VALID,0,
2012-10-13, 00:23:05,VALID,1009.78,VALID,0,VALID,104,VALID,0,VALID,23.2848,VALID,38,VALID,0,
2012-10-13, 00:24:05,VALID,1009.76,VALID,0,VALID,104,VALID,0,VALID,23.2848,VALID,39,VALID,0,
2012-10-13, 00:25:05,VALID,1009.74,VALID,0,VALID,104,VALID,0,VALID,23.2654,VALID,40,VALID,0,
2012-10-13, 00:26:05,VALID,1009.77,VALID,0,VALID,104,VALID,0,VALID,23.2654,VALID,37,VALID,0,
2012-10-13, 00:27:05,VALID,1009.77,VALID,0,VALID,104,VALID,0.112112,VALID,23.2246,VALID,39,VALID,0,
2012-10-13, 00:28:05,VALID,1009.79,VALID,0,VALID,104,VALID,0,VALID,23.2069,VALID,40,VALID,0,
2012-10-13, 00:29:05,VALID,1009.77,VALID,0,VALID,104,VALID,0,VALID,23.2069,VALID,40,VALID,0,
2012-10-13, 00:30:05,VALID,1009.79,VALID,0,VALID,104,VALID,0,VALID,23.1874,VALID,38,VALID,0,
2012-10-13, 00:31:05,VALID,1009.81,VALID,0,VALID,104,VALID,0.112112,VALID,23.1662,VALID,39,VALID,0,
2012-10-13, 00:32:05,VALID,1009.8,VALID,0,VALID,104,VALID,0,VALID,23.1662,VALID,39,VALID,0,
2012-10-13, 00:33:05,VALID,1009.81,VALID,0,VALID,104,VALID,0.112112,VALID,23.1857,VALID,39,VALID,0,
2012-10-13, 00:34:05,VALID,1009.79,VALID,0,VALID,104,VALID,0,VALID,23.1857,VALID,39,VALID,0,
2012-10-13, 00:35:05,VALID,1009.78,VALID,0,VALID,104,VALID,0,VALID,23.1857,VALID,37,VALID,0,
2012-10-13, 00:36:05,VALID,1009.76,VALID,0,VALID,104,VALID,0,VALID,23.2264,VALID,38,VALID,0,
2012-10-13, 00:37:05,VALID,1009.75,VALID,0,VALID,104,VALID,0,VALID,23.2246,VALID,40,VALID,0,
2012-10-13, 00:38:05,VALID,1009.75,VALID,0,VALID,104,VALID,0.112112,VALID,23.2246,VALID,39,VALID,0,
2012-10-13, 00:39:05,VALID,1009.71,VALID,0,VALID,104,VALID,0.112112,VALID,23.2441,VALID,39,VALID,0,
2012-10-13, 00:40:05,VALID,1009.71,VALID,0,VALID,104,VALID,0,VALID,23.2654,VALID,39,VALID,0,
2012-10-13, 00:41:05,VALID,1009.7,VALID,0,VALID,104,VALID,0,VALID,23.2654,VALID,40,VALID,0,
2012-10-13, 00:42:05,VALID,1009.66,VALID,0,VALID,104,VALID,0,VALID,23.2636,VALID,38,VALID,0,
2012-10-13, 00:43:05,VALID,1009.65,VALID,0,VALID,104,VALID,0,VALID,23.2441,VALID,39,VALID,0,
2012-10-13, 00:44:05,VALID,1009.64,VALID,0,VALID,104,VALID,0.112112,VALID,23.2636,VALID,41,VALID,0,
2012-10-13, 00:45:05,VALID,1009.61,VALID,0,VALID,104,VALID,0.112112,VALID,23.2636,VALID,39,VALID,0,
2012-10-13, 00:46:05,VALID,1009.59,VALID,0,VALID,104,VALID,0.112112,VALID,23.2441,VALID,39,VALID,0,
2012-10-13, 00:47:05,VALID,1009.59,VALID,0,VALID,104,VALID,0.112112,VALID,23.2441,VALID,39,VALID,0,
2012-10-13, 00:48:05,VALID,1009.56,VALID,0,VALID,104,VALID,0,VALID,23.2264,VALID,39,VALID,0,
2012-10-13, 00:49:05,VALID,1009.55,VALID,0,VALID,104,VALID,0,VALID,23.2459,VALID,39,VALID,0,
2012-10-13, 00:50:05,VALID,1009.55,VALID,0,VALID,104,VALID,0,VALID,23.2654,VALID,39,VALID,0,
2012-10-13, 00:51:05,VALID,1009.56,VALID,0,VALID,104,VALID,0,VALID,23.3043,VALID,39,VALID,0,
2012-10-13, 00:52:05,VALID,1009.55,VALID,0,VALID,104,VALID,0,VALID,23.3043,VALID,39,VALID,0,
2012-10-13, 00:53:05,VALID,1009.57,VALID,0,VALID,104,VALID,0,VALID,23.2848,VALID,39,VALID,0,
2012-10-13, 00:54:05,VALID,1009.54,VALID,0,VALID,104,VALID,0,VALID,23.2848,VALID,39,VALID,0,
2012-10-13, 00:55:05,VALID,1009.53,VALID,0,VALID,104,VALID,0,VALID,23.2848,VALID,39,VALID,0,
2012-10-13, 00:56:05,VALID,1009.53,VALID,0,VALID,104,VALID,0,VALID,23.2848,VALID,39,VALID,0,
2012-10-13, 00:57:05,VALID,1009.5,VALID,0,VALID,104,VALID,0,VALID,23.2848,VALID,39,VALID,0,
2012-10-13, 00:58:05,VALID,1009.52,VALID,0,VALID,104,VALID,0,VALID,23.2654,VALID,39,VALID,0,
2012-10-13, 00:59:05,VALID,1009.49,VALID,0,VALID,104,VALID,0,VALID,23.2866,VALID,39,VALID,0,
2012-10-13, 01:00:05,VALID,1009.47,VALID,0,VALID,104,VALID,0,VALID,23.2654,VALID,39,VALID,0,
2012-10-13, 01:01:05,VALID,1009.48,VALID,0,VALID,104,VALID,0,VALID,23.3043,VALID,40,VALID,0,
2012-10-13, 01:02:05,VALID,1009.45,VALID,0,VALID,104,VALID,0,VALID,23.2848,VALID,40,VALID,0,
2012-10-13, 01:03:05,VALID,1009.43,VALID,0,VALID,104,VALID,0,VALID,23.3026,VALID,39,VALID,0,
2012-10-13, 01:04:05,VALID,1009.42,VALID,0,VALID,104,VALID,0,VALID,23.3026,VALID,39,VALID,0,
2012-10-13, 01:05:05,VALID,1009.39,VALID,0,VALID,104,VALID,0,VALID,23.3238,VALID,39,VALID,0,
2012-10-13, 01:06:05,VALID,1009.39,VALID,0,VALID,104,VALID,0,VALID,23.3026,VALID,39,VALID,0,
2012-10-13, 01:07:05,VALID,1009.39,VALID,0,VALID,104,VALID,0,VALID,23.3043,VALID,40,VALID,0,
2012-10-13, 01:08:05,VALID,1009.4,VALID,0,VALID,104,VALID,0,VALID,23.2831,VALID,38,VALID,0,
2012-10-13, 01:09:05,VALID,1009.37,VALID,0,VALID,104,VALID,0,VALID,23.2848,VALID,39,VALID,0,
2012-10-13, 01:10:05,VALID,1009.35,VALID,0,VALID,104,VALID,0,VALID,23.2654,VALID,39,VALID,0,
2012-10-13, 01:11:05,VALID,1009.36,VALID,0,VALID,104,VALID,0,VALID,23.2654,VALID,39,VALID,0,
2012-10-13, 01:12:05,VALID,1009.38,VALID,0,VALID,104,VALID,0,VALID,23.2848,VALID,39,VALID,0,
2012-10-13, 01:13:05,VALID,1009.37,VALID,0,VALID,104,VALID,0,VALID,23.2831,VALID,39,VALID,0,
2012-10-13, 01:14:05,VALID,1009.35,VALID,0,VALID,104,VALID,0,VALID,23.3026,VALID,39,VALID,0,
2012-10-13, 01:15:05,VALID,1009.35,VALID,0,VALID,104,VALID,0,VALID,23.3433,VALID,39,VALID,0,
2012-10-13, 01:16:05,VALID,1009.33,VALID,0,VALID,104,VALID,0,VALID,23.3433,VALID,39,VALID,0,
2012-10-13, 01:17:05,VALID,1009.32,VALID,0,VALID,104,VALID,0,VALID,23.3433,VALID,39,VALID,0,
2012-10-13, 01:18:05,VALID,1009.33,VALID,0,VALID,104,VALID,0.112112,VALID,23.3415,VALID,39,VALID,0,
2012-10-13, 01:19:05,VALID,1009.33,VALID,0,VALID,104,VALID,0,VALID,23.3628,VALID,39,VALID,0,
2012-10-13, 01:20:05,VALID,1009.33,VALID,0,VALID,104,VALID,0.112112,VALID,23.322,VALID,39,VALID,0,
2012-10-13, 01:21:05,VALID,1009.36,VALID,0,VALID,104,VALID,0.112112,VALID,23.322,VALID,39,VALID,0,
2012-10-13, 01:22:05,VALID,1009.34,VALID,0,VALID,104,VALID,0.112112,VALID,23.3628,VALID,39,VALID,0,
2012-10-13, 01:23:05,VALID,1009.36,VALID,0,VALID,104,VALID,0,VALID,23.361,VALID,39,VALID,0,
2012-10-13, 01:24:05,VALID,1009.37,VALID,0,VALID,104,VALID,0,VALID,23.4017,VALID,39,VALID,0,
2012-10-13, 01:25:05,VALID,1009.38,VALID,0,VALID,104,VALID,0,VALID,23.4017,VALID,39,VALID,0,
2012-10-13, 01:26:05,VALID,1009.37,VALID,0,VALID,104,VALID,0,VALID,23.4212,VALID,39,VALID,0,
2012-10-13, 01:27:05,VALID,1009.35,VALID,0,VALID,104,VALID,0,VALID,23.4407,VALID,39,VALID,0,
2012-10-13, 01:28:05,VALID,1009.34,VALID,0,VALID,104,VALID,0.112112,VALID,23.4602,VALID,83,VALID,0,
2012-10-13, 01:29:05,VALID,1009.33,VALID,0,VALID,104,VALID,0,VALID,23.4584,VALID,86,VALID,0,
2012-10-13, 01:30:05,VALID,1009.31,VALID,0,VALID,104,VALID,0,VALID,23.4584,VALID,86,VALID,0,
2012-10-13, 01:31:05,VALID,1009.28,VALID,0,VALID,104,VALID,0,VALID,23.4779,VALID,86,VALID,0,
2012-10-13, 01:32:05,VALID,1009.26,VALID,0,VALID,104,VALID,0,VALID,23.4974,VALID,84,VALID,0,
2012-10-13, 01:33:05,VALID,1009.24,VALID,0,VALID,104,VALID,0.112112,VALID,23.5169,VALID,99,VALID,0,
2012-10-13, 01:34:05,VALID,1009.24,VALID,0,VALID,104,VALID,0.112112,VALID,23.5381,VALID,99,VALID,0,
2012-10-13, 01:35:05,VALID,1009.24,VALID,0,VALID,104,VALID,0,VALID,23.5381,VALID,99,VALID,0,
2012-10-13, 01:36:05,VALID,1009.24,VALID,0,VALID,104,VALID,0,VALID,23.5169,VALID,99,VALID,0,
2012-10-13, 01:37:05,VALID,1009.25,VALID,0,VALID,104,VALID,0.112112,VALID,23.5381,VALID,99,VALID,0,
2012-10-13, 01:38:05,VALID,1009.27,VALID,0,VALID,104,VALID,0.112112,VALID,23.5363,VALID,99,VALID,0,
2012-10-13, 01:39:05,VALID,1009.26,VALID,0,VALID,104,VALID,0.112112,VALID,23.5169,VALID,99,VALID,0,
2012-10-13, 01:40:05,VALID,1009.26,VALID,0,VALID,104,VALID,0.112112,VALID,23.5169,VALID,107,VALID,0,
2012-10-13, 01:41:05,VALID,1009.24,VALID,0,VALID,104,VALID,0,VALID,23.5186,VALID,107,VALID,0,
2012-10-13, 01:42:05,VALID,1009.27,VALID,0,VALID,104,VALID,0,VALID,23.4974,VALID,107,VALID,0,
2012-10-13, 01:43:05,VALID,1009.27,VALID,0,VALID,104,VALID,0,VALID,23.5186,VALID,108,VALID,0,
2012-10-13, 01:44:05,VALID,1009.24,VALID,0,VALID,104,VALID,0,VALID,23.4974,VALID,107,VALID,0,
2012-10-13, 01:45:05,VALID,1009.25,VALID,0,VALID,104,VALID,0.112112,VALID,23.5186,VALID,107,VALID,0,
2012-10-13, 01:46:05,VALID,1009.28,VALID,0,VALID,104,VALID,0,VALID,23.4974,VALID,108,VALID,0,
2012-10-13, 01:47:05,VALID,1009.28,VALID,0,VALID,104,VALID,0,VALID,23.4779,VALID,107,VALID,0,
2012-10-13, 01:48:05,VALID,1009.29,VALID,0,VALID,104,VALID,0.112112,VALID,23.4779,VALID,126,VALID,0.498828,
2012-10-13, 01:49:05,VALID,1009.31,VALID,0,VALID,104,VALID,0,VALID,23.4992,VALID,132,VALID,0.458984,
2012-10-13, 01:50:05,VALID,1009.31,VALID,0,VALID,104,VALID,0,VALID,23.4992,VALID,135,VALID,0.320703,
2012-10-13, 01:51:05,VALID,1009.28,VALID,0,VALID,104,VALID,0,VALID,23.4992,VALID,135,VALID,0.466797,
2012-10-13, 01:52:05,VALID,1009.28,VALID,0,VALID,104,VALID,0,VALID,23.4992,VALID,135,VALID,0.403906,
2012-10-13, 01:53:05,VALID,1009.26,VALID,0,VALID,104,VALID,0,VALID,23.5186,VALID,135,VALID,0.360547,
2012-10-13, 01:54:05,VALID,1009.29,VALID,0,VALID,104,VALID,0,VALID,23.4974,VALID,134,VALID,0.389844,
2012-10-13, 01:55:05,VALID,1009.28,VALID,0,VALID,104,VALID,0,VALID,23.4779,VALID,135,VALID,0,
2012-10-13, 01:56:05,VALID,1009.29,VALID,0,VALID,104,VALID,0,VALID,23.5186,VALID,135,VALID,0,
2012-10-13, 01:57:05,VALID,1009.25,VALID,0,VALID,104,VALID,0,VALID,23.5186,VALID,135,VALID,0,
2012-10-13, 01:58:05,VALID,1009.24,VALID,0,VALID,104,VALID,0,VALID,23.4974,VALID,134,VALID,0,
2012-10-13, 01:59:05,VALID,1009.2,VALID,0,VALID,104,VALID,0,VALID,23.5381,VALID,135,VALID,0,
2012-10-13, 02:00:05,VALID,1009.19,VALID,0,VALID,104,VALID,0,VALID,23.5169,VALID,134,VALID,0,
2012-10-13, 02:01:05,VALID,1009.16,VALID,0,VALID,104,VALID,0,VALID,23.5169,VALID,134,VALID,0,
2012-10-13, 02:02:05,VALID,1009.11,VALID,0,VALID,104,VALID,0.112112,VALID,23.5169,VALID,134,VALID,0,
2012-10-13, 02:03:05,VALID,1009.1,VALID,0,VALID,104,VALID,0,VALID,23.5381,VALID,134,VALID,0,
2012-10-13, 02:04:05,VALID,1009.1,VALID,0,VALID,104,VALID,0.112112,VALID,23.5169,VALID,134,VALID,0,
2012-10-13, 02:05:05,VALID,1009.06,VALID,0,VALID,104,VALID,0,VALID,23.4974,VALID,134,VALID,0,
2012-10-13, 02:06:05,VALID,1009.06,VALID,0,VALID,104,VALID,0.112112,VALID,23.5381,INVALID,360,VALID,0,
2012-10-13, 02:07:05,VALID,1009.07,VALID,0,VALID,104,VALID,0.112112,VALID,23.4974,VALID,135,VALID,0,
2012-10-13, 02:08:05,VALID,1009.05,VALID,0,VALID,104,VALID,0,VALID,23.5186,VALID,134,VALID,0,
2012-10-13, 02:09:05,VALID,1009.04,VALID,0,VALID,104,VALID,0,VALID,23.4797,VALID,134,VALID,0,
2012-10-13, 02:10:05,VALID,1009.03,VALID,0,VALID,104,VALID,0,VALID,23.4389,VALID,135,VALID,0,
2012-10-13, 02:11:05,VALID,1009.05,VALID,0,VALID,104,VALID,0.112112,VALID,23.4389,VALID,134,VALID,0,
2012-10-13, 02:12:05,VALID,1009.08,VALID,0,VALID,104,VALID,0.112112,VALID,23.4,VALID,134,VALID,0,
2012-10-13, 02:13:05,VALID,1009.08,VALID,0,VALID,104,VALID,0.112112,VALID,23.3805,VALID,134,VALID,0,
2012-10-13, 02:14:05,VALID,1009.04,VALID,0,VALID,104,VALID,0,VALID,23.3628,VALID,134,VALID,0,
2012-10-13, 02:15:05,VALID,1009.06,VALID,0,VALID,104,VALID,0,VALID,23.361,VALID,134,VALID,0,
2012-10-13, 02:16:05,VALID,1009.08,VALID,0,VALID,104,VALID,0.112112,VALID,23.3415,VALID,134,VALID,0.278516,
2012-10-13, 02:17:05,VALID,1009.1,VALID,0,VALID,104,VALID,0,VALID,23.4,VALID,134,VALID,0.359375,
2012-10-13, 02:18:05,VALID,1009.09,VALID,0,VALID,104,VALID,0,VALID,23.4602,VALID,157,VALID,0.498047,
2012-10-13, 02:19:05,VALID,1009.07,VALID,0,VALID,104,VALID,0,VALID,23.4797,VALID,157,VALID,0.360547,
2012-10-13, 02:20:05,VALID,1009.06,VALID,0,VALID,104,VALID,0,VALID,23.5186,VALID,157,VALID,0.25,
2012-10-13, 02:21:05,VALID,1009.07,VALID,0,VALID,104,VALID,0,VALID,23.5594,VALID,157,VALID,0,
2012-10-13, 02:22:05,VALID,1009.06,VALID,0,VALID,104,VALID,0,VALID,23.5576,VALID,157,VALID,0,
2012-10-13, 02:23:05,VALID,1009.02,VALID,0,VALID,104,VALID,0,VALID,23.5984,VALID,157,VALID,0,
2012-10-13, 02:24:05,VALID,1009.03,VALID,0,VALID,104,VALID,0,VALID,23.6179,VALID,157,VALID,0,
2012-10-13, 02:25:05,VALID,1009.03,VALID,0,VALID,104,VALID,0,VALID,23.6179,VALID,157,VALID,0,
2012-10-13, 02:26:05,VALID,1009.02,VALID,0,VALID,104,VALID,0,VALID,23.5966,VALID,157,VALID,0,
2012-10-13, 02:27:05,VALID,1009.02,VALID,0,VALID,104,VALID,0,VALID,23.5984,VALID,157,VALID,0,
2012-10-13, 02:28:05,VALID,1009.02,VALID,0,VALID,104,VALID,0,VALID,23.5789,VALID,157,VALID,0,
2012-10-13, 02:29:05,VALID,1009,VALID,0,VALID,104,VALID,0,VALID,23.5399,VALID,157,VALID,0,
2012-10-13, 02:30:05,VALID,1008.99,VALID,0,VALID,104,VALID,0,VALID,23.4992,VALID,157,VALID,0,
2012-10-13, 02:31:05,VALID,1008.96,VALID,0,VALID,104,VALID,0,VALID,23.4602,VALID,157,VALID,0,
2012-10-13, 02:32:04,VALID,1008.97,VALID,0,VALID,104,VALID,0,VALID,23.4407,VALID,157,VALID,0,
2012-10-13, 02:33:04,VALID,1008.95,VALID,0,VALID,104,VALID,0,VALID,23.3805,VALID,157,VALID,0,
2012-10-13, 02:34:04,VALID,1008.94,VALID,0,VALID,104,VALID,0,VALID,23.361,VALID,157,VALID,0,
2012-10-13, 02:35:04,VALID,1008.94,VALID,0,VALID,104,VALID,0,VALID,23.361,VALID,157,VALID,0,
2012-10-13, 02:36:04,VALID,1008.95,VALID,0,VALID,104,VALID,0,VALID,23.322,VALID,157,VALID,0,
2012-10-13, 02:37:04,VALID,1008.94,VALID,0,VALID,104,VALID,0,VALID,23.3238,VALID,157,VALID,0,
2012-10-13, 02:38:04,VALID,1008.95,VALID,0,VALID,104,VALID,0,VALID,23.3026,VALID,157,VALID,0,
2012-10-13, 02:39:04,VALID,1008.94,VALID,0,VALID,104,VALID,0,VALID,23.3433,VALID,157,VALID,0,
2012-10-13, 02:40:04,VALID,1008.92,VALID,0,VALID,104,VALID,0,VALID,23.3628,VALID,157,VALID,0,
2012-10-13, 02:41:04,VALID,1008.93,VALID,0,VALID,104,VALID,0.112112,VALID,23.361,VALID,157,VALID,0,
2012-10-13, 02:42:04,VALID,1008.93,VALID,0,VALID,104,VALID,0,VALID,23.3823,VALID,157,VALID,0,
2012-10-13, 02:43:04,VALID,1008.93,VALID,0,VALID,104,VALID,0.112112,VALID,23.4212,VALID,157,VALID,0,
2012-10-13, 02:44:04,VALID,1008.94,VALID,0,VALID,104,VALID,0.112112,VALID,23.4194,VALID,157,VALID,0,
2012-10-13, 02:45:04,VALID,1008.99,VALID,0,VALID,104,VALID,0,VALID,23.4779,VALID,157,VALID,0,
2012-10-13, 02:46:04,VALID,1008.98,VALID,0,VALID,104,VALID,0,VALID,23.5169,VALID,157,VALID,0.235938,
2012-10-13, 02:47:04,VALID,1008.99,VALID,0,VALID,104,VALID,0,VALID,23.5558,VALID,157,VALID,0,
2012-10-13, 02:48:04,VALID,1008.95,VALID,0,VALID,104,VALID,0,VALID,23.5966,VALID,157,VALID,0,
2012-10-13, 02:49:04,VALID,1008.94,VALID,0,VALID,104,VALID,0.112112,VALID,23.5948,VALID,157,VALID,0,
2012-10-13, 02:50:04,VALID,1008.96,VALID,0,VALID,104,VALID,0,VALID,23.5966,VALID,157,VALID,0,
2012-10-13, 02:51:04,VALID,1008.97,VALID,0,VALID,104,VALID,0,VALID,23.6161,VALID,157,VALID,0,
2012-10-13, 02:52:04,VALID,1008.94,VALID,0,VALID,104,VALID,0,VALID,23.5966,VALID,157,VALID,0,
2012-10-13, 02:53:04,VALID,1008.92,VALID,0,VALID,104,VALID,0.112112,VALID,23.5558,VALID,157,VALID,0,
2012-10-13, 02:54:04,VALID,1008.91,VALID,0,VALID,104,VALID,0,VALID,23.5169,VALID,157,VALID,0,
2012-10-13, 02:55:04,VALID,1008.92,VALID,0,VALID,104,VALID,0,VALID,23.4584,VALID,157,VALID,0,
2012-10-13, 02:56:04,VALID,1008.91,VALID,0,VALID,104,VALID,0,VALID,23.3805,VALID,157,VALID,0,
2012-10-13, 02:57:04,VALID,1008.88,VALID,0,VALID,104,VALID,0,VALID,23.3415,VALID,108,VALID,0,
2012-10-13, 02:58:04,VALID,1008.86,VALID,0,VALID,104,VALID,0,VALID,23.3433,VALID,108,VALID,0,
2012-10-13, 02:59:04,VALID,1008.85,VALID,0,VALID,104,VALID,0,VALID,23.322,VALID,95,VALID,0,
2012-10-13, 03:00:04,VALID,1008.82,VALID,0,VALID,104,VALID,0.112112,VALID,23.3628,VALID,95,VALID,0,
2012-10-13, 03:01:04,VALID,1008.81,VALID,0,VALID,104,VALID,0,VALID,23.361,VALID,95,VALID,0,
2012-10-13, 03:02:04,VALID,1008.8,VALID,0,VALID,104,VALID,0,VALID,23.4212,VALID,94,VALID,0,
2012-10-13, 03:03:04,VALID,1008.78,VALID,0,VALID,104,VALID,0,VALID,23.4,VALID,94,VALID,0,
2012-10-13, 03:04:04,VALID,1008.79,VALID,0,VALID,104,VALID,0,VALID,23.4407,VALID,95,VALID,0,
2012-10-13, 03:05:04,VALID,1008.79,VALID,0,VALID,104,VALID,0,VALID,23.4212,VALID,70,VALID,0,
2012-10-13, 03:06:04,VALID,1008.82,VALID,0,VALID,104,VALID,0,VALID,23.4017,VALID,71,VALID,0,
2012-10-13, 03:07:04,VALID,1008.79,VALID,0,VALID,104,VALID,0,VALID,23.3823,VALID,71,VALID,0,
2012-10-13, 03:08:04,VALID,1008.81,VALID,0,VALID,104,VALID,0,VALID,23.3433,VALID,67,VALID,0,
2012-10-13, 03:09:04,VALID,1008.84,VALID,0,VALID,104,VALID,0.112112,VALID,23.3433,VALID,64,VALID,0,
2012-10-13, 03:10:04,VALID,1008.86,VALID,0,VALID,104,VALID,0,VALID,23.3026,VALID,64,VALID,0,
2012-10-13, 03:11:04,VALID,1008.87,VALID,0,VALID,104,VALID,0,VALID,23.3043,VALID,64,VALID,0,
2012-10-13, 03:12:04,VALID,1008.88,VALID,0,VALID,104,VALID,0.112112,VALID,23.2831,VALID,64,VALID,0,
2012-10-13, 03:13:04,VALID,1008.91,VALID,0,VALID,104,VALID,0,VALID,23.2848,VALID,64,VALID,0,
2012-10-13, 03:14:04,VALID,1008.89,VALID,0,VALID,104,VALID,0,VALID,23.2441,VALID,64,VALID,0,
2012-10-13, 03:15:04,VALID,1008.91,VALID,0,VALID,104,VALID,0,VALID,23.2246,VALID,64,VALID,0,
2012-10-13, 03:16:04,VALID,1008.9,VALID,0,VALID,104,VALID,0,VALID,23.2264,VALID,64,VALID,0,
2012-10-13, 03:17:04,VALID,1008.86,VALID,0,VALID,104,VALID,0.112112,VALID,23.2246,VALID,64,VALID,0,
2012-10-13, 03:18:04,VALID,1008.85,VALID,0,VALID,104,VALID,0.112112,VALID,23.2051,VALID,63,VALID,0,
2012-10-13, 03:19:04,VALID,1008.82,VALID,0,VALID,104,VALID,0.112112,VALID,23.2051,VALID,65,VALID,0,
2012-10-13, 03:20:04,VALID,1008.85,VALID,0,VALID,104,VALID,0.112112,VALID,23.1839,VALID,64,VALID,0,
2012-10-13, 03:21:04,VALID,1008.85,VALID,0,VALID,104,VALID,0.112112,VALID,23.2051,VALID,63,VALID,0,
2012-10-13, 03:22:04,VALID,1008.89,VALID,0,VALID,104,VALID,0.112112,VALID,23.2246,VALID,64,VALID,0,
2012-10-13, 03:23:04,VALID,1008.93,VALID,0,VALID,104,VALID,0.112112,VALID,23.2246,VALID,64,VALID,0,
2012-10-13, 03:24:04,VALID,1008.96,VALID,0,VALID,104,VALID,0.112112,VALID,23.2848,VALID,64,VALID,0,
2012-10-13, 03:25:04,VALID,1008.97,VALID,0,VALID,104,VALID,0.112112,VALID,23.2831,VALID,64,VALID,0,
2012-10-13, 03:26:04,VALID,1008.99,VALID,0,VALID,104,VALID,0.112112,VALID,23.2831,VALID,64,VALID,0,
2012-10-13, 03:27:04,VALID,1009.01,VALID,0,VALID,104,VALID,0.112112,VALID,23.2831,VALID,64,VALID,0,
2012-10-13, 03:28:04,VALID,1008.97,VALID,0,VALID,104,VALID,0.112112,VALID,23.3026,VALID,64,VALID,0,
2012-10-13, 03:29:04,VALID,1008.95,VALID,0,VALID,104,VALID,0.112112,VALID,23.3026,VALID,64,VALID,0,
2012-10-13, 03:30:04,VALID,1008.95,VALID,0,VALID,104,VALID,0.112112,VALID,23.2831,VALID,64,VALID,0,
2012-10-13, 03:31:04,VALID,1008.95,VALID,0,VALID,104,VALID,0.112112,VALID,23.2831,VALID,64,VALID,0,
2012-10-13, 03:32:04,VALID,1008.95,VALID,0,VALID,104,VALID,0,VALID,23.3026,VALID,64,VALID,0,
2012-10-13, 03:33:04,VALID,1008.93,VALID,0,VALID,104,VALID,0.112112,VALID,23.322,VALID,64,VALID,0,
2012-10-13, 03:34:04,VALID,1008.94,VALID,0,VALID,104,VALID,0.112112,VALID,23.3415,VALID,64,VALID,0,
2012-10-13, 03:35:04,VALID,1008.96,VALID,0,VALID,104,VALID,0.112112,VALID,23.3415,VALID,64,VALID,0,
2012-10-13, 03:36:04,VALID,1008.97,VALID,0,VALID,104,VALID,0.112112,VALID,23.3415,VALID,63,VALID,0,
2012-10-13, 03:37:04,VALID,1009,VALID,0,VALID,104,VALID,0.112112,VALID,23.3415,VALID,64,VALID,0,
2012-10-13, 03:38:04,VALID,1009.03,VALID,0,VALID,104,VALID,0,VALID,23.361,VALID,64,VALID,0,
2012-10-13, 03:39:04,VALID,1009.02,VALID,0,VALID,104,VALID,0.112112,VALID,23.361,VALID,64,VALID,0,
2012-10-13, 03:40:04,VALID,1009.02,VALID,0,VALID,104,VALID,0.112112,VALID,23.3415,VALID,64,VALID,0,
2012-10-13, 03:41:04,VALID,1009.05,VALID,0,VALID,104,VALID,0.112112,VALID,23.361,VALID,65,VALID,0,
2012-10-13, 03:42:04,VALID,1009.01,VALID,0,VALID,104,VALID,0.112112,VALID,23.3823,VALID,66,VALID,0,
2012-10-13, 03:43:04,VALID,1009,VALID,0,VALID,104,VALID,0.112112,VALID,23.361,VALID,66,VALID,0,
2012-10-13, 03:44:04,VALID,1009,VALID,0,VALID,104,VALID,0.112112,VALID,23.361,VALID,65,VALID,0,
2012-10-13, 03:45:04,VALID,1008.97,VALID,0,VALID,104,VALID,0.112112,VALID,23.361,VALID,66,VALID,0,
2012-10-13, 03:46:04,VALID,1008.96,VALID,0,VALID,104,VALID,0.112112,VALID,23.3805,VALID,65,VALID,0,
2012-10-13, 03:47:04,VALID,1008.97,VALID,0,VALID,104,VALID,0.112112,VALID,23.3805,VALID,66,VALID,0,
2012-10-13, 03:48:04,VALID,1008.93,VALID,0,VALID,104,VALID,0,VALID,23.423,VALID,65,VALID,0,
2012-10-13, 03:49:04,VALID,1008.92,VALID,0,VALID,104,VALID,0,VALID,23.3823,VALID,65,VALID,0,
2012-10-13, 03:50:04,VALID,1008.9,VALID,0,VALID,104,VALID,0,VALID,23.3805,VALID,66,VALID,0,
2012-10-13, 03:51:04,VALID,1008.91,VALID,0,VALID,104,VALID,0,VALID,23.4017,VALID,67,VALID,0,
2012-10-13, 03:52:04,VALID,1008.88,VALID,0,VALID,104,VALID,0,VALID,23.4017,VALID,69,VALID,0,
2012-10-13, 03:53:04,VALID,1008.94,VALID,0,VALID,104,VALID,0,VALID,23.4017,VALID,114,VALID,0,
2012-10-13, 03:54:04,VALID,1008.97,VALID,0,VALID,104,VALID,0,VALID,23.4017,VALID,113,VALID,0,
2012-10-13, 03:55:04,VALID,1008.97,VALID,0,VALID,104,VALID,0,VALID,23.361,VALID,113,VALID,0,
2012-10-13, 03:56:04,VALID,1008.99,VALID,0,VALID,104,VALID,0,VALID,23.3823,VALID,113,VALID,0,
2012-10-13, 03:57:04,VALID,1008.99,VALID,0,VALID,104,VALID,0,VALID,23.423,VALID,116,VALID,0,
2012-10-13, 03:58:04,VALID,1008.99,VALID,0,VALID,104,VALID,0,VALID,23.4212,VALID,126,VALID,0,
2012-10-13, 03:59:04,VALID,1009,VALID,0,VALID,104,VALID,0,VALID,23.4407,VALID,127,VALID,0,
2012-10-13, 04:00:04,VALID,1008.98,VALID,0,VALID,104,VALID,0,VALID,23.4407,VALID,126,VALID,0,
2012-10-13, 04:01:04,VALID,1008.97,VALID,0,VALID,104,VALID,0,VALID,23.4407,VALID,128,VALID,0,
2012-10-13, 04:02:04,VALID,1008.95,VALID,0,VALID,104,VALID,0,VALID,23.4407,VALID,126,VALID,0,
2012-10-13, 04:03:04,VALID,1008.99,VALID,0,VALID,104,VALID,0,VALID,23.4407,VALID,126,VALID,0,
2012-10-13, 04:04:04,VALID,1008.95,VALID,0,VALID,104,VALID,0,VALID,23.4194,VALID,128,VALID,0,
2012-10-13, 04:05:04,VALID,1009.02,VALID,0,VALID,104,VALID,0,VALID,23.4212,VALID,125,VALID,0,